Kosmos-711

operational
NORAD ID: 7678 Int'l Des: 1975-016 Owner: GUKOSR Country: SU
LEOCIRCULAR

关于 Kosmos-711

正在加载描述...

实时位置

正在加载3D地球...

即将过境

高度历史

Altitude vs Time

uPlot chart will show altitude changes over time

两行轨道根数

1 7678U 75016A 26061.12111411 -.00000032 00000-0 -11339-3 0 9991
2 7678 74.0030 201.3404 0019186 79.9731 31.1702 12.47083819321989
Epoch: Mar 2, 2026 • Age: 29 hours

当前状态

高度 1469.7 km
速度 7.14 km/s
星下点 36.09°N, 31.13°W
类型 other

大型星座

Loading constellations...